EW9578 Weather Reports


time (UTC)temp
F
wind
direction
speed
knots
gust
knots
rain 1hr
in
rain 24hr
in
rain mn
in
humidity
%
barometer
mb
20200531080144 62 0.0 0.0 0.00 0.13 0.00 66 1008.4
20200531074547 62 0.0 0.0 0.00 0.13 0.00 65 1008.3
20200531073043 63 0.0 0.0 0.00 0.13 0.00 64 1008.2
20200531071539 63 0.0 0.0 0.00 0.13 0.00 64 1008.1
20200531070029 63 0.0 0.0 0.00 0.13 0.00 63 1008.0
20200531064607 0 261 0.0 7.0 0.00 0.13 0.00 1007.9
20200531063050 0 252 0.9 7.0 0.00 0.13 0.00 1007.9
20200531061600 0 260 0.9 10.4 0.00 0.13 0.00 1007.8
20200531060027 0 286 1.7 9.6 0.00 0.13 0.00 1007.7
20200531054515 66 0.0 0.0 0.00 0.13 0.00 58 1007.8
20200531053034 66 0.0 0.0 0.00 0.13 0.00 56 1007.7
20200531051510 67 0.0 0.0 0.00 0.13 0.00 55 1007.7
20200531050021 67 0.0 0.0 0.00 0.13 0.00 56 1007.7
20200531044502 67 0.0 0.0 0.00 0.13 0.00 56 1007.8
20200531043248 67 0.0 0.0 0.00 0.13 0.00 56 1007.7
20200531041748 67 0.0 0.0 0.00 0.13 0.00 56 1007.8
20200531040146 67 0.0 0.0 0.00 0.13 0.13 56 1007.6
20200531034733 68 0.0 0.0 0.00 0.13 0.13 55 1007.6
20200531033318 69 0.0 0.0 0.00 0.13 0.13 53 1007.6
20200531031639 69 0.0 0.0 0.00 0.13 0.13 53 1007.3
20200531030304 69 0.0 0.0 0.00 0.13 0.13 51 1006.9
20200531024626 70 0.0 0.0 0.00 0.13 0.13 51 1007.1
20200531023156 70 0.0 0.0 0.00 0.13 0.13 51 1007.1
20200531021624 71 0.0 0.0 0.00 0.13 0.13 50 1007.3
20200531020149 72 0.0 0.0 0.00 0.13 0.13 49 1007.3
20200531014644 72 0.0 0.0 0.00 0.13 0.13 49 1007.3
20200531013241 72 0.0 0.0 0.00 0.13 0.13 49 1007.2
20200531011837 73 0.0 0.0 0.00 0.13 0.13 48 1007.0
20200531010133 74 0.0 0.0 0.00 0.13 0.13 47 1006.9
20200531004628 74 0.0 0.0 0.00 0.13 0.13 45 1006.8
20200531003100 75 0.0 0.0 0.00 0.13 0.13 45 1006.8
20200531001757 76 0.0 0.0 0.00 0.13 0.13 44 1006.7
20200531000246 76 0.0 0.0 0.00 0.13 0.13 43 1006.7
20200530234643 77 0.0 0.0 0.00 0.13 0.13 43 1006.7
20200530233115 77 0.0 0.0 0.00 0.13 0.13 42 1006.5
20200530231615 78 0.0 0.0 0.00 0.13 0.13 41 1006.4
20200530230116 78 0.0 0.0 0.00 0.13 0.13 41 1006.3
20200530224703 0 245 3.5 12.2 0.00 0.13 0.13 1006.3
20200530223110 0 319 0.9 7.8 0.00 0.13 0.13 1006.2
20200530221647 0 259 1.7 10.4 0.00 0.13 0.13 1006.1
20200530220235 0 255 5.2 13.9 0.00 0.13 0.13 1006.0
20200530214603 0 261 1.7 10.4 0.00 0.13 0.13 1005.9
20200530213110 0 207 1.7 12.2 0.00 0.13 0.13 1005.9
20200530211539 0 207 8.7 13.9 0.00 0.13 0.13 1006.0
20200530210034 0 255 3.5 8.7 0.00 0.13 0.13 1006.1
20200530204547 0 237 5.2 14.8 0.00 0.13 0.13 1006.1
20200530203051 0 255 4.3 13.0 0.00 0.13 0.13 1006.0
20200530201516 0 190 7.0 13.0 0.00 0.13 0.13 1006.1
20200530200005 0 5 1.7 10.4 0.00 0.13 0.13 1006.0
20200530194509 83 0.0 0.0 0.00 0.13 0.13 37 1006.0
20200530193006 83 0.0 0.0 0.00 0.13 0.13 37 1006.0
20200530191807 83 0.0 0.0 0.00 0.13 0.13 37 1006.1
20200530190133 82 0.0 0.0 0.00 0.13 0.13 38 1006.1
20200530184725 82 0.0 0.0 0.00 0.13 0.13 39 1006.1
20200530183106 82 0.0 0.0 0.00 0.13 0.13 39 1006.3
20200530181611 81 0.0 0.0 0.00 0.13 0.13 40 1006.2
20200530180126 81 0.0 0.0 0.00 0.13 0.13 40 1006.2
20200530174612 81 0.0 0.0 0.00 0.13 0.13 43 1006.5
20200530173205 80 0.0 0.0 0.00 0.13 0.13 44 1006.5
20200530171735 81 0.0 0.0 0.00 0.13 0.13 44 1006.6
20200530170146 81 0.0 0.0 0.00 0.13 0.13 45 1006.5
20200530164628 81 0.0 0.0 0.00 0.13 0.13 48 1006.6
20200530163119 80 0.0 0.0 0.00 0.13 0.13 50 1006.7
20200530161616 79 0.0 0.0 0.00 0.13 0.13 50 1006.7
20200530160106 80 0.0 0.0 0.00 0.13 0.13 49 1006.9
20200530154610 81 0.0 0.0 0.00 0.13 0.13 51 1007.0
20200530153121 80 0.0 0.0 0.00 0.13 0.13 52 1007.0
20200530151554 79 0.0 0.0 0.00 0.13 0.13 53 1007.1
20200530150051 78 0.0 0.0 0.00 0.13 0.13 53 1007.0
20200530144635 77 0.0 0.0 0.00 0.13 0.13 55 1007.1
20200530143051 76 0.0 0.0 0.00 0.13 0.13 58 1007.1
20200530141606 75 0.0 0.0 0.00 0.13 0.13 66 1007.1
20200530140056 75 0.0 0.0 0.00 0.13 0.13 73 1007.0
20200530134559 75 0.0 0.0 0.00 0.13 0.13 75 1007.0
20200530133058 74 0.0 0.0 0.00 0.13 0.13 79 1007.0
20200530131556 73 0.0 0.0 0.00 0.13 0.13 82 1007.2
20200530130021 71 0.0 0.0 0.00 0.13 0.13 87 1007.1
20200530124521 70 0.0 0.0 0.00 0.13 0.13 92 1007.1
20200530123035 69 0.0 0.0 0.00 0.13 0.13 95 1007.1
20200530121605 68 0.0 0.0 0.00 0.13 0.13 96 1007.2
20200530120021 66 0.0 0.0 0.00 0.13 0.13 96 1007.1
20200530114519 0 199 4.3 8.7 0.01 0.13 0.13 1007.1
20200530113008 0 202 7.0 8.7 0.01 0.13 0.13 1007.1
20200530111704 0 202 7.8 13.0 0.01 0.13 0.13 1007.0
20200530110157 0 221 0.0 4.3 0.01 0.13 0.13 1006.9
20200530104636 64 0.0 0.0 0.01 0.13 0.13 96 1007.1
20200530103124 64 0.0 0.0 0.00 0.12 0.12 96 1006.9
20200530101644 63 0.0 0.0 0.00 0.12 0.12 96 1007.1
20200530100119 62 0.0 0.0 0.00 0.12 0.12 96 1006.8
20200530094703 61 0.0 0.0 0.00 0.12 0.12 95 1006.5
20200530093105 61 0.0 0.0 0.02 0.12 0.12 94 1006.5
20200530091718 61 0.0 0.0 0.10 0.12 0.12 95 1006.6
20200530090215 61 0.0 0.0 0.12 0.12 0.12 94 1006.7
20200530084623 61 0.0 0.0 0.12 0.12 0.12 94 1006.9
20200530083215 63 0.0 0.0 0.11 0.11 0.11 93 1006.9
20200530081716 64 0.0 0.0 0.02 0.02 0.02 96 1007.1